Location: Monteux
(44.0348°N, 4.9972°E)
Time: 17:31:02
(UTC+00:00)

Meteor 1-27 Rocket - Pass Details

Date: 30 November 2020
Orbit: 830 x 909 km, 81.3° (Epoch: 17 January)

Event Time Altitude Azimuth Distance (km) Brightness Sun altitude
Rises 18:19:15 0° 175° (S) 3,359 6.9 -23.8°
Reaches altitude 10° 18:21:41 10° 171° (S) 2,432 6.1 -24.2°
Enters shadow 18:25:13 38° 149° (SSE) 1,253 4.3 -24.9°
